STARLINK-32284

Last updated on Sun Oct 06 2024 00:02:04 GMT+0000 (Coordinated Universal Time)

1 61005U 24158R 24279.58335648 .00035145 00000+0 88531-3 0 9993 2 61005 53.1582 327.4638 0001960 52.1652 353.5427 15.39593467 5958
UTC large
Height (km)
Speed (km/s)
/
Latitude / Longitude
Inclination (degrees)
Orbital Period (minutes)
Azimuth
Elevation
Range (km)
Doppler Factor

Next 0 passes for location: London (51.5072 / 0.1276)

Sorry there are no passes over London.